Year,Month,Day,Hour,Minute,Value (Times are PST for temperature in C)
2013,05,26,00,00,8.60
2013,05,26,00,01,8.60
2013,05,26,00,02,8.70
2013,05,26,00,03,8.70
2013,05,26,00,04,8.70
2013,05,26,00,05,8.70
2013,05,26,00,06,8.80
2013,05,26,00,07,8.80
2013,05,26,00,08,8.90
2013,05,26,00,09,8.90
2013,05,26,00,10,9.00
2013,05,26,00,11,9.10
2013,05,26,00,12,9.10
2013,05,26,00,13,9.20
2013,05,26,00,14,9.20
2013,05,26,00,15,9.30
2013,05,26,00,16,9.30
2013,05,26,00,17,9.30
2013,05,26,00,18,9.30
2013,05,26,00,19,9.40
2013,05,26,00,20,9.40
2013,05,26,00,21,9.40
2013,05,26,00,22,9.40
2013,05,26,00,23,9.40
2013,05,26,00,24,9.40
2013,05,26,00,25,9.30
2013,05,26,00,26,9.30
2013,05,26,00,27,9.30
2013,05,26,00,28,9.30
2013,05,26,00,29,9.30
2013,05,26,00,30,9.30
2013,05,26,00,31,9.30
2013,05,26,00,32,9.30
2013,05,26,00,33,9.30
2013,05,26,00,34,9.30
2013,05,26,00,35,9.30
2013,05,26,00,36,9.40
2013,05,26,00,37,9.40
2013,05,26,00,38,9.40
2013,05,26,00,39,9.40
2013,05,26,00,40,9.40
2013,05,26,00,41,9.40
2013,05,26,00,42,9.40
2013,05,26,00,43,9.30
2013,05,26,00,44,9.30
2013,05,26,00,45,9.30
2013,05,26,00,46,9.30
2013,05,26,00,47,9.30
2013,05,26,00,48,9.30
2013,05,26,00,49,9.30
2013,05,26,00,50,9.30
2013,05,26,00,51,9.30
2013,05,26,00,52,9.30
2013,05,26,00,53,9.30
2013,05,26,00,54,9.30
2013,05,26,00,55,9.30
2013,05,26,00,56,9.30
2013,05,26,00,57,9.30
2013,05,26,00,58,9.30
2013,05,26,00,59,9.30
2013,05,26,01,00,9.30
2013,05,26,01,01,9.30
2013,05,26,01,02,9.30
2013,05,26,01,03,9.30
2013,05,26,01,04,9.30
2013,05,26,01,05,9.30
2013,05,26,01,06,9.30
2013,05,26,01,07,9.30
2013,05,26,01,08,9.30
2013,05,26,01,09,9.30
2013,05,26,01,10,9.30
2013,05,26,01,11,9.30
2013,05,26,01,12,9.30
2013,05,26,01,13,9.30
2013,05,26,01,14,9.30
2013,05,26,01,15,9.30
2013,05,26,01,16,9.30
2013,05,26,01,17,9.30
2013,05,26,01,18,9.30
2013,05,26,01,19,9.30
2013,05,26,01,20,9.30
2013,05,26,01,21,9.30
2013,05,26,01,22,9.30
2013,05,26,01,23,9.30
2013,05,26,01,24,9.30
2013,05,26,01,25,9.30
2013,05,26,01,26,9.30
2013,05,26,01,27,9.30
2013,05,26,01,28,9.30
2013,05,26,01,29,9.30
2013,05,26,01,30,9.30
2013,05,26,01,31,9.30
2013,05,26,01,32,9.30
2013,05,26,01,33,9.40
2013,05,26,01,34,9.40
2013,05,26,01,35,9.40
2013,05,26,01,36,9.40
2013,05,26,01,37,9.40
2013,05,26,01,38,9.40
2013,05,26,01,39,9.40
2013,05,26,01,40,9.40
2013,05,26,01,41,9.40
2013,05,26,01,42,9.40
2013,05,26,01,43,9.40
2013,05,26,01,44,9.40
2013,05,26,01,45,9.40
2013,05,26,01,46,9.40
2013,05,26,01,47,9.40
2013,05,26,01,48,9.40
2013,05,26,01,49,9.40
2013,05,26,01,50,9.40
2013,05,26,01,51,9.40
2013,05,26,01,52,9.50
2013,05,26,01,53,9.50
2013,05,26,01,54,9.50
2013,05,26,01,55,9.50
2013,05,26,01,56,9.50
2013,05,26,01,57,9.50
2013,05,26,01,58,9.50
2013,05,26,01,59,9.50
2013,05,26,02,00,9.50
2013,05,26,02,01,9.50
2013,05,26,02,02,9.50
2013,05,26,02,03,9.50
2013,05,26,02,04,9.50
2013,05,26,02,05,9.50
2013,05,26,02,06,9.50
2013,05,26,02,07,9.50
2013,05,26,02,08,9.50
2013,05,26,02,09,9.50
2013,05,26,02,10,9.40
2013,05,26,02,11,9.40
2013,05,26,02,12,9.40
2013,05,26,02,13,9.40
2013,05,26,02,14,9.40
2013,05,26,02,15,9.50
2013,05,26,02,16,9.50
2013,05,26,02,17,9.40
2013,05,26,02,18,9.40
2013,05,26,02,19,9.50
2013,05,26,02,20,9.40
2013,05,26,02,21,9.40
2013,05,26,02,22,9.40
2013,05,26,02,23,9.40
2013,05,26,02,24,9.40
2013,05,26,02,25,9.40
2013,05,26,02,26,9.40
2013,05,26,02,27,9.40
2013,05,26,02,28,9.40
2013,05,26,02,29,9.40
2013,05,26,02,30,9.40
2013,05,26,02,31,9.40
2013,05,26,02,32,9.50
2013,05,26,02,33,9.50
2013,05,26,02,34,9.50
2013,05,26,02,35,9.50
2013,05,26,02,36,9.50
2013,05,26,02,37,9.50
2013,05,26,02,38,9.50
2013,05,26,02,39,9.50
2013,05,26,02,40,9.50
2013,05,26,02,41,9.50
2013,05,26,02,42,9.50
2013,05,26,02,43,9.50
2013,05,26,02,44,9.50
2013,05,26,02,45,9.50
2013,05,26,02,46,9.50
2013,05,26,02,47,9.50
2013,05,26,02,48,9.50
2013,05,26,02,49,9.50
2013,05,26,02,50,9.50
2013,05,26,02,51,9.50
2013,05,26,02,52,9.50
2013,05,26,02,53,9.50
2013,05,26,02,54,9.50
2013,05,26,02,55,9.50
2013,05,26,02,56,9.50
2013,05,26,02,57,9.50
2013,05,26,02,58,9.50
2013,05,26,02,59,9.50
2013,05,26,03,00,9.50
2013,05,26,03,01,9.50
2013,05,26,03,02,9.50
2013,05,26,03,03,9.50
2013,05,26,03,04,9.50
2013,05,26,03,05,9.50
2013,05,26,03,06,9.50
2013,05,26,03,07,9.50
2013,05,26,03,08,9.50
2013,05,26,03,09,9.60
2013,05,26,03,10,9.60
2013,05,26,03,11,9.60
2013,05,26,03,12,9.60
2013,05,26,03,13,9.60
2013,05,26,03,14,9.60
2013,05,26,03,15,9.60
2013,05,26,03,16,9.60
2013,05,26,03,17,9.60
2013,05,26,03,18,9.60
2013,05,26,03,19,9.60
2013,05,26,03,20,9.60
2013,05,26,03,21,9.60
2013,05,26,03,22,9.60
2013,05,26,03,23,9.60
2013,05,26,03,24,9.50
2013,05,26,03,25,9.50
2013,05,26,03,26,9.50
2013,05,26,03,27,9.50
2013,05,26,03,28,9.50
2013,05,26,03,29,9.50
2013,05,26,03,30,9.50
2013,05,26,03,31,9.50
2013,05,26,03,32,9.50
2013,05,26,03,33,9.50
2013,05,26,03,34,9.50
2013,05,26,03,35,9.50
2013,05,26,03,36,9.50
2013,05,26,03,37,9.40
2013,05,26,03,38,9.40
2013,05,26,03,39,9.40
2013,05,26,03,40,9.40
2013,05,26,03,41,9.40
2013,05,26,03,42,9.40
2013,05,26,03,43,9.40
2013,05,26,03,44,9.40
2013,05,26,03,45,9.40
2013,05,26,03,46,9.40
2013,05,26,03,47,9.40
2013,05,26,03,48,9.40
2013,05,26,03,49,9.40
2013,05,26,03,50,9.40
2013,05,26,03,51,9.40
2013,05,26,03,52,9.40
2013,05,26,03,53,9.40
2013,05,26,03,54,9.40
2013,05,26,03,55,9.40
2013,05,26,03,56,9.40
2013,05,26,03,57,9.40
2013,05,26,03,58,9.40
2013,05,26,03,59,9.40
2013,05,26,04,00,9.40
2013,05,26,04,01,9.40
2013,05,26,04,02,9.40
2013,05,26,04,03,9.40
2013,05,26,04,04,9.40
2013,05,26,04,05,9.40
2013,05,26,04,06,9.40
2013,05,26,04,07,9.40
2013,05,26,04,08,9.40
2013,05,26,04,09,9.40
2013,05,26,04,10,9.40
2013,05,26,04,11,9.40
2013,05,26,04,12,9.40
2013,05,26,04,13,9.40
2013,05,26,04,14,9.40
2013,05,26,04,15,9.40
2013,05,26,04,16,9.40
2013,05,26,04,17,9.40
2013,05,26,04,18,9.40
2013,05,26,04,19,9.40
2013,05,26,04,20,9.40
2013,05,26,04,21,9.40
2013,05,26,04,22,9.40
2013,05,26,04,23,9.40
2013,05,26,04,24,9.40
2013,05,26,04,25,9.50
2013,05,26,04,26,9.50
2013,05,26,04,27,9.50
2013,05,26,04,28,9.50
2013,05,26,04,29,9.60
2013,05,26,04,30,9.60
2013,05,26,04,31,9.60
2013,05,26,04,32,9.60
2013,05,26,04,33,9.60
2013,05,26,04,34,9.60
2013,05,26,04,35,9.60
2013,05,26,04,36,9.60
2013,05,26,04,37,9.60
2013,05,26,04,38,9.60
2013,05,26,04,39,9.60
2013,05,26,04,40,9.60
2013,05,26,04,41,9.60
2013,05,26,04,42,9.60
2013,05,26,04,43,9.60
2013,05,26,04,44,9.60
2013,05,26,04,45,9.60
2013,05,26,04,46,9.60
2013,05,26,04,47,9.50
2013,05,26,04,48,9.50
2013,05,26,04,49,9.50
2013,05,26,04,50,9.50
2013,05,26,04,51,9.40
2013,05,26,04,52,9.40
2013,05,26,04,53,9.40
2013,05,26,04,54,9.40
2013,05,26,04,55,9.40
2013,05,26,04,56,9.40
2013,05,26,04,57,9.40
2013,05,26,04,58,9.40
2013,05,26,04,59,9.30
2013,05,26,05,00,9.30
2013,05,26,05,01,9.30
2013,05,26,05,02,9.30
2013,05,26,05,03,9.30
2013,05,26,05,04,9.40
2013,05,26,05,05,9.40
2013,05,26,05,06,9.40
2013,05,26,05,07,9.40
2013,05,26,05,08,9.40
2013,05,26,05,09,9.40
2013,05,26,05,10,9.40
2013,05,26,05,11,9.40
2013,05,26,05,12,9.40
2013,05,26,05,13,9.30
2013,05,26,05,14,9.30
2013,05,26,05,15,9.30
2013,05,26,05,16,9.30
2013,05,26,05,17,9.30
2013,05,26,05,18,9.30
2013,05,26,05,19,9.30
2013,05,26,05,20,9.30
2013,05,26,05,21,9.40
2013,05,26,05,22,9.40
2013,05,26,05,23,9.40
2013,05,26,05,24,9.50
2013,05,26,05,25,9.50
2013,05,26,05,26,9.50
2013,05,26,05,27,9.50
2013,05,26,05,28,9.50
2013,05,26,05,29,9.50
2013,05,26,05,30,9.50
2013,05,26,05,31,9.50
2013,05,26,05,32,9.50
2013,05,26,05,33,9.50
2013,05,26,05,34,9.50
2013,05,26,05,35,9.60
2013,05,26,05,36,9.60
2013,05,26,05,37,9.60
2013,05,26,05,38,9.60
2013,05,26,05,39,9.50
2013,05,26,05,40,9.50
2013,05,26,05,41,9.50
2013,05,26,05,42,9.50
2013,05,26,05,43,9.50
2013,05,26,05,44,9.50
2013,05,26,05,45,9.50
2013,05,26,05,46,9.50
2013,05,26,05,47,9.50
2013,05,26,05,48,9.50
2013,05,26,05,49,9.40
2013,05,26,05,50,9.40
2013,05,26,05,51,9.40
2013,05,26,05,52,9.40
2013,05,26,05,53,9.30
2013,05,26,05,54,9.30
2013,05,26,05,55,9.30
2013,05,26,05,56,9.30
2013,05,26,05,57,9.30
2013,05,26,05,58,9.20
2013,05,26,05,59,9.20
2013,05,26,06,00,9.20
2013,05,26,06,01,9.20
2013,05,26,06,02,9.20
2013,05,26,06,03,9.10
2013,05,26,06,04,9.10
2013,05,26,06,05,9.10
2013,05,26,06,06,9.10
2013,05,26,06,07,9.10
2013,05,26,06,08,9.10
2013,05,26,06,09,9.00
2013,05,26,06,10,9.00
2013,05,26,06,11,9.00
2013,05,26,06,12,9.00
2013,05,26,06,13,9.00
2013,05,26,06,14,9.10
2013,05,26,06,15,9.10
2013,05,26,06,16,9.10
2013,05,26,06,17,9.10
2013,05,26,06,18,9.10
2013,05,26,06,19,9.20
2013,05,26,06,20,9.20
2013,05,26,06,21,9.20
2013,05,26,06,22,9.20
2013,05,26,06,23,9.20
2013,05,26,06,24,9.20
2013,05,26,06,25,9.20
2013,05,26,06,26,9.20
2013,05,26,06,27,9.20
2013,05,26,06,28,9.20
2013,05,26,06,29,9.20
2013,05,26,06,30,9.20
2013,05,26,06,31,9.20
2013,05,26,06,32,9.30
2013,05,26,06,33,9.30
2013,05,26,06,34,9.30
2013,05,26,06,35,9.30
2013,05,26,06,36,9.30
2013,05,26,06,37,9.30
2013,05,26,06,38,9.30
2013,05,26,06,39,9.30
2013,05,26,06,40,9.40
2013,05,26,06,41,9.40
2013,05,26,06,42,9.40
2013,05,26,06,43,9.40
2013,05,26,06,44,9.40
2013,05,26,06,45,9.40
2013,05,26,06,46,9.50
2013,05,26,06,47,9.50
2013,05,26,06,48,9.60
2013,05,26,06,49,9.60
2013,05,26,06,50,9.60
2013,05,26,06,51,9.60
2013,05,26,06,52,9.60
2013,05,26,06,53,9.70
2013,05,26,06,54,9.70
2013,05,26,06,55,9.70
2013,05,26,06,56,9.70
2013,05,26,06,57,9.70
2013,05,26,06,58,9.70
2013,05,26,06,59,9.80
2013,05,26,07,00,9.80
2013,05,26,07,01,9.80
2013,05,26,07,02,9.80
2013,05,26,07,03,9.80
2013,05,26,07,04,9.90
2013,05,26,07,05,9.90
2013,05,26,07,06,9.90
2013,05,26,07,07,9.90
2013,05,26,07,08,10.00
2013,05,26,07,09,10.00
2013,05,26,07,10,10.00
2013,05,26,07,11,10.00
2013,05,26,07,12,10.10
2013,05,26,07,13,10.10
2013,05,26,07,14,10.20
2013,05,26,07,15,10.20
2013,05,26,07,16,10.30
2013,05,26,07,17,10.30
2013,05,26,07,18,10.40
2013,05,26,07,19,10.40
2013,05,26,07,20,10.50
2013,05,26,07,21,10.60
2013,05,26,07,22,10.70
2013,05,26,07,23,10.70
2013,05,26,07,24,10.80
2013,05,26,07,25,10.80
2013,05,26,07,26,10.90
2013,05,26,07,27,10.90
2013,05,26,07,28,11.00
2013,05,26,07,29,11.00
2013,05,26,07,30,11.10
2013,05,26,07,31,11.10
2013,05,26,07,32,11.20
2013,05,26,07,33,11.20
2013,05,26,07,34,11.20
2013,05,26,07,35,11.30
2013,05,26,07,36,11.30
2013,05,26,07,37,11.30
2013,05,26,07,38,11.30
2013,05,26,07,39,11.30
2013,05,26,07,40,11.30
2013,05,26,07,41,11.30
2013,05,26,07,42,11.30
2013,05,26,07,43,11.40
2013,05,26,07,44,11.40
2013,05,26,07,45,11.40
2013,05,26,07,46,11.40
2013,05,26,07,47,11.50
2013,05,26,07,48,11.50
2013,05,26,07,49,11.50
2013,05,26,07,50,11.40
2013,05,26,07,51,11.50
2013,05,26,07,52,11.50
2013,05,26,07,53,11.50
2013,05,26,07,54,11.60
2013,05,26,07,55,11.60
2013,05,26,07,56,11.60
2013,05,26,07,57,11.60
2013,05,26,07,58,11.60
2013,05,26,07,59,11.60
2013,05,26,08,00,11.70
2013,05,26,08,01,11.70
2013,05,26,08,02,11.70
2013,05,26,08,03,11.70
2013,05,26,08,04,11.70
2013,05,26,08,05,11.70
2013,05,26,08,06,11.70
2013,05,26,08,07,11.70
2013,05,26,08,08,11.70
2013,05,26,08,09,11.70
2013,05,26,08,10,11.70
2013,05,26,08,11,11.70
2013,05,26,08,12,11.70
2013,05,26,08,13,11.70
2013,05,26,08,14,11.70
2013,05,26,08,15,11.70
2013,05,26,08,16,11.70
2013,05,26,08,17,11.80
2013,05,26,08,18,11.80
2013,05,26,08,19,11.80
2013,05,26,08,20,11.80
2013,05,26,08,21,11.80
2013,05,26,08,22,11.90
2013,05,26,08,23,11.90
2013,05,26,08,24,11.90
2013,05,26,08,25,12.00
2013,05,26,08,26,12.00
2013,05,26,08,27,12.10
2013,05,26,08,28,12.10
2013,05,26,08,29,12.20
2013,05,26,08,30,12.20
2013,05,26,08,31,12.30
2013,05,26,08,32,12.30
2013,05,26,08,33,12.40
2013,05,26,08,34,12.40
2013,05,26,08,35,12.50
2013,05,26,08,36,12.50
2013,05,26,08,37,12.60
2013,05,26,08,38,12.60
2013,05,26,08,39,12.60
2013,05,26,08,40,12.70
2013,05,26,08,41,12.70
2013,05,26,08,42,12.70
2013,05,26,08,43,12.70
2013,05,26,08,44,12.80
2013,05,26,08,45,12.80
2013,05,26,08,46,12.80
2013,05,26,08,47,12.80
2013,05,26,08,48,12.80
2013,05,26,08,49,12.90
2013,05,26,08,50,12.90
2013,05,26,08,51,12.90
2013,05,26,08,52,13.00
2013,05,26,08,53,13.00
2013,05,26,08,54,13.10
2013,05,26,08,55,13.10
2013,05,26,08,56,13.20
2013,05,26,08,57,13.20
2013,05,26,08,58,13.20
2013,05,26,08,59,13.30
2013,05,26,09,00,13.30
2013,05,26,09,01,13.40
2013,05,26,09,02,13.40
2013,05,26,09,03,13.40
2013,05,26,09,04,13.50
2013,05,26,09,05,13.50
2013,05,26,09,06,13.60
2013,05,26,09,07,13.60
2013,05,26,09,08,13.60
2013,05,26,09,09,13.60
2013,05,26,09,10,13.60
2013,05,26,09,11,13.60
2013,05,26,09,12,13.60
2013,05,26,09,13,13.60
2013,05,26,09,14,13.70
2013,05,26,09,15,13.70
2013,05,26,09,16,13.70
2013,05,26,09,17,13.80
2013,05,26,09,18,13.80
2013,05,26,09,19,13.90
2013,05,26,09,20,13.90
2013,05,26,09,21,13.90
2013,05,26,09,22,14.00
2013,05,26,09,23,14.10
2013,05,26,09,24,14.10
2013,05,26,09,25,14.10
2013,05,26,09,26,14.10
2013,05,26,09,27,14.10
2013,05,26,09,28,14.00
2013,05,26,09,29,14.00
2013,05,26,09,30,14.00
2013,05,26,09,31,14.00
2013,05,26,09,32,14.00
2013,05,26,09,33,14.00
2013,05,26,09,34,14.00
2013,05,26,09,35,14.00
2013,05,26,09,36,14.10
2013,05,26,09,37,14.10
2013,05,26,09,38,14.20
2013,05,26,09,39,14.20
2013,05,26,09,40,14.20
2013,05,26,09,41,14.30
2013,05,26,09,42,14.30
2013,05,26,09,43,14.30
2013,05,26,09,44,14.20
2013,05,26,09,45,14.20
2013,05,26,09,46,14.10
2013,05,26,09,47,14.10
2013,05,26,09,48,14.10
2013,05,26,09,49,14.10
2013,05,26,09,50,14.20
2013,05,26,09,51,14.20
2013,05,26,09,52,14.20
2013,05,26,09,53,14.30
2013,05,26,09,54,14.30
2013,05,26,09,55,14.30
2013,05,26,09,56,14.40
2013,05,26,09,57,14.40
2013,05,26,09,58,14.40
2013,05,26,09,59,14.40
2013,05,26,10,00,14.40
2013,05,26,10,01,14.40
2013,05,26,10,02,14.30
2013,05,26,10,03,14.20
2013,05,26,10,04,14.10
2013,05,26,10,05,14.00
2013,05,26,10,06,13.90
2013,05,26,10,07,14.00
2013,05,26,10,08,14.00
2013,05,26,10,09,14.20
2013,05,26,10,10,14.20
2013,05,26,10,11,14.30
2013,05,26,10,12,14.40
2013,05,26,10,13,14.30
2013,05,26,10,14,14.30
2013,05,26,10,15,14.20
2013,05,26,10,16,14.10
2013,05,26,10,17,14.10
2013,05,26,10,18,14.00
2013,05,26,10,19,14.00
2013,05,26,10,20,14.00
2013,05,26,10,21,14.10
2013,05,26,10,22,14.00
2013,05,26,10,23,14.10
2013,05,26,10,24,14.20
2013,05,26,10,25,14.20
2013,05,26,10,26,14.20
2013,05,26,10,27,14.20
2013,05,26,10,28,14.20
2013,05,26,10,29,14.10
2013,05,26,10,30,14.00
2013,05,26,10,31,13.90
2013,05,26,10,32,14.00
2013,05,26,10,33,14.00
2013,05,26,10,34,14.10
2013,05,26,10,35,14.10
2013,05,26,10,36,14.00
2013,05,26,10,37,13.90
2013,05,26,10,38,13.90
2013,05,26,10,39,13.80
2013,05,26,10,40,13.80
2013,05,26,10,41,13.80
2013,05,26,10,42,13.70
2013,05,26,10,43,13.70
2013,05,26,10,44,13.80
2013,05,26,10,45,13.80
2013,05,26,10,46,13.70
2013,05,26,10,47,13.70
2013,05,26,10,48,13.70
2013,05,26,10,49,13.70
2013,05,26,10,50,13.70
2013,05,26,10,51,13.70
2013,05,26,10,52,13.80
2013,05,26,10,53,13.80
2013,05,26,10,54,13.80
2013,05,26,10,55,13.80
2013,05,26,10,56,13.90
2013,05,26,10,57,13.90
2013,05,26,10,58,14.00
2013,05,26,10,59,14.00
2013,05,26,11,00,14.10
2013,05,26,11,01,14.10
2013,05,26,11,02,14.00
2013,05,26,11,03,14.00
2013,05,26,11,04,14.00
2013,05,26,11,05,14.00
2013,05,26,11,06,14.10
2013,05,26,11,07,14.10
2013,05,26,11,08,14.10
2013,05,26,11,09,14.00
2013,05,26,11,10,14.00
2013,05,26,11,11,13.90
2013,05,26,11,12,13.90
2013,05,26,11,13,14.00
2013,05,26,11,14,14.10
2013,05,26,11,15,14.20
2013,05,26,11,16,14.20
2013,05,26,11,17,14.20
2013,05,26,11,18,14.20
2013,05,26,11,19,14.30
2013,05,26,11,20,14.30
2013,05,26,11,21,14.30
2013,05,26,11,22,14.30
2013,05,26,11,23,14.30
2013,05,26,11,24,14.30
2013,05,26,11,25,14.20
2013,05,26,11,26,14.20
2013,05,26,11,27,14.20
2013,05,26,11,28,14.30
2013,05,26,11,29,14.30
2013,05,26,11,30,14.30
2013,05,26,11,31,14.10
2013,05,26,11,32,14.10
2013,05,26,11,33,14.10
2013,05,26,11,34,14.10
2013,05,26,11,35,14.00
2013,05,26,11,36,14.00
2013,05,26,11,37,13.90
2013,05,26,11,38,13.90
2013,05,26,11,39,13.80
2013,05,26,11,40,13.80
2013,05,26,11,41,13.90
2013,05,26,11,42,14.00
2013,05,26,11,43,14.00
2013,05,26,11,44,14.00
2013,05,26,11,45,14.10
2013,05,26,11,46,14.10
2013,05,26,11,47,14.10
2013,05,26,11,48,14.10
2013,05,26,11,49,14.10
2013,05,26,11,50,14.10
2013,05,26,11,51,14.10
2013,05,26,11,52,14.00
2013,05,26,11,53,14.00
2013,05,26,11,54,13.90
2013,05,26,11,55,14.00
2013,05,26,11,56,14.10
2013,05,26,11,57,14.10
2013,05,26,11,58,14.20
2013,05,26,11,59,14.20
2013,05,26,12,00,14.30
2013,05,26,12,01,14.30
2013,05,26,12,02,14.30
2013,05,26,12,03,14.20
2013,05,26,12,04,14.20
2013,05,26,12,05,14.20
2013,05,26,12,06,14.30
2013,05,26,12,07,14.40
2013,05,26,12,08,14.50
2013,05,26,12,09,14.50
2013,05,26,12,10,14.70
2013,05,26,12,11,14.80
2013,05,26,12,12,15.00
2013,05,26,12,13,15.10
2013,05,26,12,14,15.10
2013,05,26,12,15,15.10
2013,05,26,12,16,15.00
2013,05,26,12,17,15.00
2013,05,26,12,18,15.00
2013,05,26,12,19,14.90
2013,05,26,12,20,14.90
2013,05,26,12,21,15.00
2013,05,26,12,22,14.90
2013,05,26,12,23,14.80
2013,05,26,12,24,14.70
2013,05,26,12,25,14.60
2013,05,26,12,26,14.60
2013,05,26,12,27,14.70
2013,05,26,12,28,14.70
2013,05,26,12,29,14.60
2013,05,26,12,30,14.50
2013,05,26,12,31,14.40
2013,05,26,12,32,14.40
2013,05,26,12,33,14.40
2013,05,26,12,34,14.30
2013,05,26,12,35,14.30
2013,05,26,12,36,14.40
2013,05,26,12,37,14.40
2013,05,26,12,38,14.50
2013,05,26,12,39,14.60
2013,05,26,12,40,14.70
2013,05,26,12,41,14.90
2013,05,26,12,42,15.10
2013,05,26,12,43,15.20
2013,05,26,12,44,15.20
2013,05,26,12,45,15.20
2013,05,26,12,46,15.30
2013,05,26,12,47,15.40
2013,05,26,12,48,15.40
2013,05,26,12,49,15.40
2013,05,26,12,50,15.30
2013,05,26,12,51,15.30
2013,05,26,12,52,15.40
2013,05,26,12,53,15.40
2013,05,26,12,54,15.50
2013,05,26,12,55,15.50
2013,05,26,12,56,15.40
2013,05,26,12,57,15.30
2013,05,26,12,58,15.20
2013,05,26,12,59,15.10
2013,05,26,13,00,15.10
2013,05,26,13,01,15.00
2013,05,26,13,02,15.00
2013,05,26,13,03,15.00
2013,05,26,13,04,14.90
2013,05,26,13,05,14.90
2013,05,26,13,06,14.90
2013,05,26,13,07,14.90
2013,05,26,13,08,14.90
2013,05,26,13,09,15.00
2013,05,26,13,10,15.20
2013,05,26,13,11,15.10
2013,05,26,13,12,15.10
2013,05,26,13,13,15.10
2013,05,26,13,14,15.00
2013,05,26,13,15,15.10
2013,05,26,13,16,15.10
2013,05,26,13,17,15.20
2013,05,26,13,18,15.30
2013,05,26,13,19,15.40
2013,05,26,13,20,15.40
2013,05,26,13,21,15.40
2013,05,26,13,22,15.40
2013,05,26,13,23,15.30
2013,05,26,13,24,15.20
2013,05,26,13,25,15.00
2013,05,26,13,26,14.90
2013,05,26,13,27,14.80
2013,05,26,13,28,14.70
2013,05,26,13,29,14.80
2013,05,26,13,30,14.90
2013,05,26,13,31,14.90
2013,05,26,13,32,14.90
2013,05,26,13,33,14.80
2013,05,26,13,34,14.80
2013,05,26,13,35,14.80
2013,05,26,13,36,14.80
2013,05,26,13,37,14.80
2013,05,26,13,38,14.80
2013,05,26,13,39,14.70
2013,05,26,13,40,14.70
2013,05,26,13,41,14.70
2013,05,26,13,42,14.70
2013,05,26,13,43,14.70
2013,05,26,13,44,14.80
2013,05,26,13,45,14.90
2013,05,26,13,46,14.90
2013,05,26,13,47,14.80
2013,05,26,13,48,14.80
2013,05,26,13,49,14.80
2013,05,26,13,50,14.80
2013,05,26,13,51,14.80
2013,05,26,13,52,14.70
2013,05,26,13,53,14.70
2013,05,26,13,54,14.80
2013,05,26,13,55,14.80
2013,05,26,13,56,14.90
2013,05,26,13,57,15.00
2013,05,26,13,58,15.00
2013,05,26,13,59,14.90
2013,05,26,14,00,14.90
2013,05,26,14,01,14.90
2013,05,26,14,02,15.00
2013,05,26,14,03,15.00
2013,05,26,14,04,15.00
2013,05,26,14,05,14.90
2013,05,26,14,06,14.80
2013,05,26,14,07,14.90
2013,05,26,14,08,14.90
2013,05,26,14,09,14.80
2013,05,26,14,10,14.80
2013,05,26,14,11,14.90
2013,05,26,14,12,15.00
2013,05,26,14,13,15.00
2013,05,26,14,14,15.10
2013,05,26,14,15,15.10
2013,05,26,14,16,15.10
2013,05,26,14,17,15.10
2013,05,26,14,18,15.30
2013,05,26,14,19,15.40
2013,05,26,14,20,15.50
2013,05,26,14,21,15.50
2013,05,26,14,22,15.60
2013,05,26,14,23,15.60
2013,05,26,14,24,15.50
2013,05,26,14,25,15.50
2013,05,26,14,26,15.50
2013,05,26,14,27,15.50
2013,05,26,14,28,15.50
2013,05,26,14,29,15.40
2013,05,26,14,30,15.40
2013,05,26,14,31,15.40
2013,05,26,14,32,15.30
2013,05,26,14,33,15.30
2013,05,26,14,34,15.40
2013,05,26,14,35,15.40
2013,05,26,14,36,15.40
2013,05,26,14,37,15.40
2013,05,26,14,38,15.50
2013,05,26,14,39,15.60
2013,05,26,14,40,15.60
2013,05,26,14,41,15.70
2013,05,26,14,42,15.80
2013,05,26,14,43,15.80
2013,05,26,14,44,15.80
2013,05,26,14,45,15.80
2013,05,26,14,46,15.60
2013,05,26,14,47,15.40
2013,05,26,14,48,15.30
2013,05,26,14,49,15.20
2013,05,26,14,50,15.20
2013,05,26,14,51,15.20
2013,05,26,14,52,15.20
2013,05,26,14,53,15.20
2013,05,26,14,54,15.20
2013,05,26,14,55,15.10
2013,05,26,14,56,15.00
2013,05,26,14,57,14.90
2013,05,26,14,58,15.00
2013,05,26,14,59,15.00
2013,05,26,15,00,15.00
2013,05,26,15,01,15.10
2013,05,26,15,02,15.20
2013,05,26,15,03,15.20
2013,05,26,15,04,15.20
2013,05,26,15,05,15.20
2013,05,26,15,06,15.20
2013,05,26,15,07,15.30
2013,05,26,15,08,15.40
2013,05,26,15,09,15.40
2013,05,26,15,10,15.40
2013,05,26,15,11,15.40
2013,05,26,15,12,15.40
2013,05,26,15,13,15.50
2013,05,26,15,14,15.50
2013,05,26,15,15,15.60
2013,05,26,15,16,15.70
2013,05,26,15,17,15.70
2013,05,26,15,18,15.80
2013,05,26,15,19,15.90
2013,05,26,15,20,15.90
2013,05,26,15,21,15.90
2013,05,26,15,22,15.90
2013,05,26,15,23,15.90
2013,05,26,15,24,16.00
2013,05,26,15,25,16.00
2013,05,26,15,26,16.00
2013,05,26,15,27,16.00
2013,05,26,15,28,15.90
2013,05,26,15,29,15.90
2013,05,26,15,30,15.80
2013,05,26,15,31,15.80
2013,05,26,15,32,15.90
2013,05,26,15,33,15.90
2013,05,26,15,34,15.80
2013,05,26,15,35,15.80
2013,05,26,15,36,15.70
2013,05,26,15,37,15.60
2013,05,26,15,38,15.60
2013,05,26,15,39,15.50
2013,05,26,15,40,15.50
2013,05,26,15,41,15.40
2013,05,26,15,42,15.40
2013,05,26,15,43,15.30
2013,05,26,15,44,15.30
2013,05,26,15,45,15.20
2013,05,26,15,46,15.20
2013,05,26,15,47,15.10
2013,05,26,15,48,15.10
2013,05,26,15,49,15.10
2013,05,26,15,50,15.00
2013,05,26,15,51,15.00
2013,05,26,15,52,15.00
2013,05,26,15,53,14.90
2013,05,26,15,54,14.90
2013,05,26,15,55,14.80
2013,05,26,15,56,14.80
2013,05,26,15,57,14.80
2013,05,26,15,58,14.80
2013,05,26,15,59,14.90
2013,05,26,16,00,14.90
2013,05,26,16,01,14.90
2013,05,26,16,02,15.00
2013,05,26,16,03,15.10
2013,05,26,16,04,15.10
2013,05,26,16,05,15.10
2013,05,26,16,06,15.20
2013,05,26,16,07,15.10
2013,05,26,16,08,15.00
2013,05,26,16,09,14.90
2013,05,26,16,10,14.90
2013,05,26,16,11,14.80
2013,05,26,16,12,14.80
2013,05,26,16,13,14.80
2013,05,26,16,14,14.80
2013,05,26,16,15,14.80
2013,05,26,16,16,14.90
2013,05,26,16,17,14.90
2013,05,26,16,18,15.00
2013,05,26,16,19,15.00
2013,05,26,16,20,15.00
2013,05,26,16,21,14.90
2013,05,26,16,22,14.90
2013,05,26,16,23,14.80
2013,05,26,16,24,14.90
2013,05,26,16,25,14.90
2013,05,26,16,26,14.90
2013,05,26,16,27,14.80
2013,05,26,16,28,14.80
2013,05,26,16,29,14.70
2013,05,26,16,30,14.60
2013,05,26,16,31,14.60
2013,05,26,16,32,14.60
2013,05,26,16,33,14.70
2013,05,26,16,34,14.70
2013,05,26,16,35,14.70
2013,05,26,16,36,14.50
2013,05,26,16,37,14.30
2013,05,26,16,38,14.20
2013,05,26,16,39,14.10
2013,05,26,16,40,14.20
2013,05,26,16,41,14.20
2013,05,26,16,42,14.30
2013,05,26,16,43,14.40
2013,05,26,16,44,14.50
2013,05,26,16,45,14.60
2013,05,26,16,46,14.70
2013,05,26,16,47,14.70
2013,05,26,16,48,14.60
2013,05,26,16,49,14.60
2013,05,26,16,50,14.60
2013,05,26,16,51,14.60
2013,05,26,16,52,14.60
2013,05,26,16,53,14.60
2013,05,26,16,54,14.60
2013,05,26,16,55,14.60
2013,05,26,16,56,14.70
2013,05,26,16,57,14.80
2013,05,26,16,58,15.00
2013,05,26,16,59,15.00
2013,05,26,17,00,15.00
2013,05,26,17,01,14.90
2013,05,26,17,02,14.80
2013,05,26,17,03,14.70
2013,05,26,17,04,14.70
2013,05,26,17,05,14.70
2013,05,26,17,06,14.80
2013,05,26,17,07,14.80
2013,05,26,17,08,14.80
2013,05,26,17,09,14.80
2013,05,26,17,10,14.80
2013,05,26,17,11,14.80
2013,05,26,17,12,14.70
2013,05,26,17,13,14.70
2013,05,26,17,14,14.70
2013,05,26,17,15,14.70
2013,05,26,17,16,14.70
2013,05,26,17,17,14.70
2013,05,26,17,18,14.70
2013,05,26,17,19,14.80
2013,05,26,17,20,14.80
2013,05,26,17,21,14.80
2013,05,26,17,22,14.80
2013,05,26,17,23,14.80
2013,05,26,17,24,14.80
2013,05,26,17,25,14.80
2013,05,26,17,26,14.80
2013,05,26,17,27,14.80
2013,05,26,17,28,14.90
2013,05,26,17,29,14.90
2013,05,26,17,30,14.80
2013,05,26,17,31,14.80
2013,05,26,17,32,14.70
2013,05,26,17,33,14.70
2013,05,26,17,34,14.70
2013,05,26,17,35,14.70
2013,05,26,17,36,14.70
2013,05,26,17,37,14.80
2013,05,26,17,38,14.80